星链-36813(STARLINK-36813)

导读

STARLINK-36813是美国SpaceX星链星座的卫星,于2026年2月21日发射升空。星链星座旨在构建全球卫星互联网星座,为全球范围提供高速互联网服务,覆盖偏远、网络基础设施薄弱区域。该卫星入轨后将参与星座组网,进一步完善星链系统的全球覆盖能力,延续SpaceX推动太空互联网部署的节奏。

Basic Information
目录编号:
67892
目录名称:
STARLINK-36813
国际标识:
2026-035P
轨道中心:
EARTH
卫星名称:
星链-36813
卫星全名:
星链-36813(STARLINK-36813)
卫星状态:
在轨 (已飞行196 天)
发射日期:
2026-02-21 UTC
国别 :
美国 (US)
星等 :
--
Orbit Information
数据来源 国际轨道数据
星历时间: 2026-09-05T14:30:05+0800
6小时前
查看轨道信息
半长轴: 6843.671km
偏心率: 0.0001361
轨道倾角: 97.281°
近地点辐角 103.095°
升交点赤经 180.406°
平近点角 257.045°
近地点: 464.602km
远地点: 466.466km
周期: 93.906分钟
每日圈数: 15.334482
Detailed Information
固有亮度:
5
最大亮度:
2.5
卫星平台:
Starlink V1.0
覆盖范围:
全球
运营商:
太空探索技术公司
运营商所在国:
美国
制造商(研发单位):
太空探索技术公司
制造商所在国:
美国
使用方式:
暂无
Satellite Introduction
Starlink 计划是 SpaceX 推出的全球卫星互联网项目,通过发射低轨道卫星,为全球尤其是偏远地区提供高速、低延迟的互联网服务。自 2019 年起,Starlink 已部署数千颗卫星,旨在缩小全球数字鸿沟,推动互联网普及。该项目还为军事、航空等行业提供通信支持,带来广泛经济效益。
2D Orbit Map
3D Orbit Map
Orbit Altitude Analysis Chart
Orbit Inclination Analysis Chart
Orbit Comprehensive Analysis Chart
View Comprehensive Chart
Conjunction Data List
Event ID Objects TCA Miss Dist (km) Collision Risk Probability Collision Risk Index (CRI) Action
CDM_260906-085805-210206-789221
2026-09-06T
08:58:28+0000
2.494 km
极远距离
1.737379E-6 低风险 0.4
CDM_260903-144406-151006-789221
2026-09-03T
14:44:53+0000
2.870 km
极远距离
1.379033E-6 低风险 0.38
CDM_260907-080104-813806-789222
2026-09-07T
08:01:34+0000
2.873 km
极远距离
1.368743E-6 低风险 0.38
CDM_260907-125005-719606-789221
2026-09-07T
12:50:36+0000
2.930 km
极远距离
1.335805E-6 低风险 0.38